Regional Weather Roundup
Issued by NWS Wakefield, VA

Home | Current Version | Previous Version | Text Only | Print | Product List | Glossary Off
Versions: 1 2 3 4 5 6 7 8 9 10 11 12 13 14 15 16 17 18 19 20 21 22 23 24 25 26 27

000
ASUS41 KAKQ 230315
RWRAKQ

REGIONAL WEATHER ROUNDUP
NATIONAL WEATHER SERVICE WAKEFIELD VA
1100 PM EDT FRI JUL 22 2016

Note: "fair" indicates few or no clouds below 12,000 feet with no
significant weather and/or obstructions to visibility. * = Denotes
station may not report precipitation (e.g., rain,snow,etc.),
thunder or fog.

VAZ042-051-052>054-056-230400-
NORTHERN VIRGINIA

CITY           SKY/WX    TMP DP  RH WIND       PRES   REMARKS
WASH NATIONAL  FAIR      85  71  63 SW6       29.93R
DULLES         FAIR      80  71  74 S5        29.94R
FORT BELVOIR   FAIR      77  71  83 S2        29.93R
QUANTICO       FAIR      83  70  64 W7        29.94S
FREDERICKSBRG* FAIR      82  73  74 SW3       29.94R
STAFFORD*      FAIR      79  71  75 CALM      29.98S
WARRENTON      FAIR      79  69  71 CALM      29.95R
CULPEPER*      FAIR      78  74  86 CALM      29.96R
MANASSAS*      FAIR      77  75  94 CALM      29.94R
LEESBURG*      FAIR      81  77  89 SW3       29.95S
WINCHESTER     FAIR      81  70  69 SW5       29.97S
FRONT ROYAL*   FAIR      77  72  83 CALM      29.96S
LURAY*         FAIR      79  72  78 S6        30.00R
$$

VAZ048-049-060>072-079>083-230400-
CENTRAL AND SOUTH CENTRAL VIRGINIA

CITY           SKY/WX    TMP DP  RH WIND       PRES   REMARKS
RICHMOND       FAIR      79  74  84 S6        29.96R
CHESTERFIELD*  FAIR      79  64  61 S3        29.98R
PETERSBURG*    FAIR      81  77  88 S3        29.98R
HANOVER        FAIR      75  70  84 CALM      29.97S
TAPPAHANNOCK*  FAIR      79  77  95 S5        29.96S
QUINTON*       FAIR      80  77  90 SE3       29.95S
CHARLOTTSVILLE FAIR      79  72  79 CALM      29.98R
GORDONSVILLE*  FAIR      75  73  96 CALM      29.97R
ORANGE*          N/A     77  75  94 CALM      29.99R
LOUISA*        FAIR      75  73  94 CALM      29.96S
BUMPASS*       FAIR      74  73  96 CALM      29.97R
FARMVILLE*     FAIR      79  74  84 CALM      29.97R
CREWE*         FAIR      81  77  90 CALM      29.98R
FORT PICKETT*  FAIR      79  78  97 SW8       29.99R
CHASE CITY*    FAIR      80  78  92 CALM      30.00R
CLARKSVILLE*   FAIR      79  73  83 SW6       29.99S
SOUTH HILL*    FAIR      77  75  93 SW3       30.05R
LAWRENCEVILLE* FAIR      78  75  91 CALM      29.99R
EMPORIA*         N/A     77  73  88 CALM      30.00R
$$

VAZ088>098-230400-
SOUTHEAST VIRGINIA

CITY           SKY/WX    TMP DP  RH WIND       PRES   REMARKS
NORFOLK        FAIR      83  72  69 SW9       29.96F
VIRGINIA BEACH FAIR      85  72  65 S13       29.96S
NORFOLK NAVAL  FAIR      83  72  69 S7        29.98S
WEST POINT*    FAIR      82  75  78 SW5       29.96S
SALUDA*        FAIR      82  77  85 SW6       29.95R
NEWPORT NEWS   FAIR      82  75  79 SW9       29.96S
LANGLEY AFB    FAIR      84  75  74 S13       29.96R
FORT EUSTIS    FAIR      82  76  81 SW6       29.95R
WILLIAMSBURG*  FAIR      84  75  74 CALM      29.97S
HR EXEC AP*    FAIR      81  72  74 SW8       29.99S
FRANKLIN*      FAIR      79  73  82 S7        29.98S
US460-WAKEFLD  FAIR      80  73  79 CALM      29.97S
$$

VAZ020-022-025-037-045-230400-
WEST CENTRAL AND SOUTHWEST VIRGINIA

CITY           SKY/WX    TMP DP  RH WIND       PRES   REMARKS
STAUNTON*      FAIR      74  68  83 CALM      30.05S
WAYNESBORO*    FAIR      74  68  80 CALM      30.05R
HOT SPRINGS VA FAIR      72  66  83 W10       30.20R
LYNCHBURG      FAIR      75  71  87 CALM      30.03R
DANVILLE       FAIR      77  71  82 SW7       30.01R
SOUTH BOSTON*  FAIR      79  77  95 S5        30.00R
MARTINSVILLE   FAIR      72  69  92 CALM      30.06R
ROANOKE        FAIR      78  69  73 NW3       30.06R
BLACKSBURG     FAIR      70  68  93 CALM      30.14R
DUBLIN*        FAIR      73  68  84 CALM      30.13R
MARION*        FAIR      71  67  89 CALM      30.17R
HILLSVILLE*    FAIR      75  68  77 CALM      30.14R
RICHLANDS*     FAIR      73  67  82 CALM      30.15R
WISE*          FAIR      75  59  57 CALM      30.16R
ABINGDON*      FAIR      76  67  75 CALM      30.11R
$$

MDZ021>025-VAZ099-100-230400-
SOUTHERN MARYLAND AND THE DELMARVA PENINSULA

CITY           SKY/WX    TMP DP  RH WIND       PRES   REMARKS
PATUXENT RIVER PTCLDY    82  71  69 SW8       29.92S
BAY BRIDGE APT CLEAR     84  73  70 SW7       29.91S
LEONARDTOWN    CLEAR     81  72  74 SW5       29.95S
DOVER          CLEAR     81  77  86 SW8       29.89R
GEORGETOWN     CLEAR     79  75  87 SW6       29.92S
EASTON         CLEAR     85  74  71 W6        29.95S
CAMBRIDGE      CLEAR     79  75  89 CALM      29.92S
SALISBURY      CLEAR     78  76  93 SW7       29.92S
OCEAN CITY     CLEAR     81  76  84 SW10      29.92S
WALLOPS ISLAND FAIR      79  76  90 SW7       29.94S
ACCOMACK*      FAIR      81  75  83 CALM      29.94S
$$

NCZ012>017-030>032-230400-
NORTH CENTRAL AND EASTERN NORTH CAROLINA

CITY           SKY/WX    TMP DP  RH WIND       PRES   REMARKS
ROANOKE RAPIDS FAIR      77  73  88 S3        29.99S
RALEIGH        PTCLDY    75  70  84 SW5       30.02R
ELIZABETH CITY CLEAR     80  72  76 SW9       30.00R
AHOSKIE*       CLEAR     77  73  86 S3        30.00R
EDENTON*       CLEAR     82  70  66 SW10      30.01S
CURRITUCK*     CLEAR     80  71  72 SW3       29.99S
KILL DEVIL HLS CLEAR     81  69  68 SW7       29.99F
MANTEO           N/A     81  73  75 SW13      30.01S
CAPE HATTERAS  CLEAR     82  71  69 SW10      30.03R
TARBORO*       FAIR      79  73  82 S5        30.01S
GOLDSBORO      CLEAR     80  76  87 S5        29.99S
WASHINGTON     CLEAR     78  71  79 S6        30.01S
GREENVILLE     CLEAR     81  72  74 SW10      30.02F
NEW BERN       CLEAR     77  71  82 S6        30.04R
WILMINGTON     CLEAR     77  71  82 S5        30.04R
$$

VAZ048-230400-
ELSEWHERE

CITY           SKY/WX    TMP DP  RH WIND       PRES   REMARKS
HARRISBURG PA  PTCLDY    84  68  58 NW10      29.88R
BALTIMORE      PTCLDY    84  71  65 W8        29.90S
ANNAPOLIS      CLEAR     83  71  67 W6        29.90S
ANDREWS AFB    FAIR      81  70  69 SW8       29.93R
PHILADELPHIA   PTCLDY    83  71  67 SW12      29.87S
GREENSBORO     MOCLDY    78  68  71 SW7       30.02S
ROCKY MOUNT    CLEAR     78  73  84 S5        30.00S
$$

VAZ100-230400-
MARINE

STATION/POSITION TIME  TEMP    WIND        PRES    WAVE   SWELL
                       AIR SEA DIR/SP/G            HT/PER HT/PER
                 (UTC) (F)     (DEG/KT/KT) (MB)    (FT/S) (FT/S)
BRANDYWINE LGT   0200   81     220/ 15/ 17   N/A
CAPE MAY NJ      0200   78 75  200/  4/  6   N/A
LEWES DE         0200   82 73  220/  7/ 10   N/A
OCEAN-CITY-INLET 0200   74 71  220/ 12/ 13   N/A
WACHAPREAGUE VA  0200   82 85  220/  5/  7   N/A
THOMAS POINT MD  0300   84 82  240/ 11/ 13 1014.2R
GOOSES REEF MD   0200   85 83  230/ 10/ 12 1014.1R   1
COVE POINT MD    0200   85     270/  9/ 11   N/A
SOLOMONS ISLAND  0200   84 83  250/  5/  7   N/A
BISHOPS HEAD MD  0200   86 87  220/  7/  9   N/A
PINEY POINT MD   0200          250/  3/  4   N/A
POTOMAC MD       0200   85 83  230/  6/  8 1012.5R   1
CAMBRIDGE MD     0200   84 85  190/  2/  4   N/A
LEWISETTA VA     0200   85 85  250/  6/  7   N/A
RAPPAHANNOCK LGT 0200          220/ 13/ 15   N/A
STINGRAY PT      0200   86 85  170/ 12/ 14 1014.3R   1/ 2
YORK RVR RNG VA  0200   86     230/ 12/ 14   N/A
YORKTOWN VA      0200   85 83  220/  7/ 10   N/A
JAMESTOWN VA     0200   84 87  200/  8/ 10   N/A     0
DOMINION TERM VA 0200   84     200/ 11/ 13   N/A
KIPTOPEKE VA     0200      84  210/ 10/ 12   N/A
CHES BAY BRIDGE  0200   85 80  190/ 11/ 14   N/A
CAPE HENRY VA    0200   83     200/  8/ 11   N/A
WILLOUBY STN VA  0200   85     210/ 14/ 17   N/A
CAPE HENRY BUOY  0212      82                N/A     3/ 8
1ST LANDING BUOY 0200   84 82  200/ 12/ 16 1014.1R
OFFSHORE WE BUOY 0251      82                N/A     4/ 9
64NM E OF VA BCH 0250   82 80  200/ 16/ 19 1015.0S   3/ 4   2/ 9
DUCK PIER NC     0200   83 69  200/ 14/ 17   N/A
44100 DUCK FRF   0205      81                N/A     2/ 8
44056 DUCK FRF   0241      78                N/A     2/ 8
OREGON INLET NC  0206   84 84  210/ 15/ 17   N/A
HATTERAS NC      0200   82 84  200/ 10/ 13   N/A
DIAMOND SHLS NC  0250   83 87  210/ 14/ 16 1016.7R   2/ 8   2/ 8
CAPE LOOKOUT NC  0300   82     200/  8/ 11 1016.6R
$$




USA.gov is the U.S. government's official web portal to all federal, state and local government web resources and services.